sat.trackr.live / text

‹ back to catalog

STARLINK-34177

NORAD 64170 · 2025-113A

PAYLOAD ACTIVE UNKNOWN

§ Identity

Operator
Country
US
Launch date
2025-05-28
Launch site
AFETR
Launch vehicle
Mass (kg)
RCS (m²)

Purposes: comms

External: N2YO · Heavens-Above · Gunter

§ Orbital elements

Epoch: 2026-05-25T02:58:50.191392Z

Period
94.01 min
Inclination
53.1591°
Eccentricity
0.0001562
Mean motion
15.31711657 rev/d
Perigee alt
469.6 km
Apogee alt
471.8 km
Semi-major
6,848.8 km
B*
4.1518e-4
RAAN
95.6814°
Arg perigee
53.6185°
Mean anomaly
306.4960°
Rev number
5,677

§ Raw data

STARLINK-341771 64170U 25113A   26145.12419203  .00012545  00000+0  41518-3 0  99982 64170  53.1591  95.6814 0001562  53.6185 306.4960 15.31711657 56779

JSON: /api/v1/satellites/64170 · /tle

For live sub-satellite position, see the globe view (requires WebGL).

§ Visibility from observer

Set your observer location to see the next 7 days of passes ≥ 10°. The values pass through the URL so the page stays shareable.

No JS? Fill the form by hand. The geolocation button needs JavaScript.